Time,TemperatureF,DewpointF,PressureIn,WindDirection,WindDirectionDegrees,WindSpeedMPH,WindSpeedGustMPH,Humidity,HourlyPrecipIn,Conditions,Clouds,dailyrainin,SoftwareType,DateUTC
2013-06-29 00:03:00,86.9,51.6,29.71,WNW,289,5.0,22.0,30,0.00,,,0.00,WUHU216DAVISVP2,2013-06-29 07:03:00,
2013-06-29 00:08:00,86.9,51.6,29.71,West,259,8.0,22.0,30,0.00,,,0.00,WUHU216DAVISVP2,2013-06-29 07:08:00,
2013-06-29 00:13:00,87.0,52.6,29.71,SW,233,10.0,22.0,31,0.00,,,0.00,WUHU216DAVISVP2,2013-06-29 07:13:00,
2013-06-29 00:18:00,86.8,51.5,29.71,SSW,205,9.0,18.0,30,0.00,,,0.00,WUHU216DAVISVP2,2013-06-29 07:18:00,
2013-06-29 00:23:00,86.8,52.4,29.71,WSW,241,9.0,18.0,31,0.00,,,0.00,WUHU216DAVISVP2,2013-06-29 07:23:00,
2013-06-29 00:29:00,86.5,52.3,29.71,SW,236,7.0,19.0,31,0.00,,,0.00,WUHU216DAVISVP2,2013-06-29 07:29:00,
2013-06-29 00:34:00,86.4,53.1,29.71,SSW,201,8.0,19.0,32,0.00,,,0.00,WUHU216DAVISVP2,2013-06-29 07:34:00,
2013-06-29 00:39:00,86.3,53.0,29.71,SW,231,10.0,19.0,32,0.00,,,0.00,WUHU216DAVISVP2,2013-06-29 07:39:00,
2013-06-29 00:44:00,86.2,52.8,29.71,WSW,237,11.0,18.0,32,0.00,,,0.00,WUHU216DAVISVP2,2013-06-29 07:44:00,
2013-06-29 00:49:00,86.0,52.6,29.71,West,276,7.0,18.0,32,0.00,,,0.00,WUHU216DAVISVP2,2013-06-29 07:49:00,
2013-06-29 00:54:00,85.9,52.5,29.71,WNW,303,4.0,18.0,32,0.00,,,0.00,WUHU216DAVISVP2,2013-06-29 07:54:00,
2013-06-29 00:59:00,85.9,51.6,29.71,NNE,18,2.0,17.0,31,0.00,,,0.00,WUHU216DAVISVP2,2013-06-29 07:59:00,
2013-06-29 01:04:00,85.9,52.5,29.71,NW,313,7.0,17.0,32,0.00,,,0.00,WUHU216DAVISVP2,2013-06-29 08:04:00,
2013-06-29 01:09:00,85.8,52.4,29.71,NNE,20,4.0,17.0,32,0.00,,,0.00,WUHU216DAVISVP2,2013-06-29 08:09:00,
2013-06-29 01:14:00,85.8,52.4,29.71,WNW,300,9.0,17.0,32,0.00,,,0.00,WUHU216DAVISVP2,2013-06-29 08:14:00,
2013-06-29 01:19:00,85.7,52.3,29.71,NE,49,1.0,17.0,32,0.00,,,0.00,WUHU216DAVISVP2,2013-06-29 08:19:00,
2013-06-29 01:24:00,85.7,52.3,29.71,NNW,339,1.0,16.0,32,0.00,,,0.00,WUHU216DAVISVP2,2013-06-29 08:24:00,
2013-06-29 01:30:00,85.5,52.1,29.71,West,277,4.0,16.0,32,0.00,,,0.00,WUHU216DAVISVP2,2013-06-29 08:30:00,
2013-06-29 01:35:00,85.4,52.1,29.71,North,355,5.0,16.0,32,0.00,,,0.00,WUHU216DAVISVP2,2013-06-29 08:35:00,
2013-06-29 01:40:00,85.4,52.1,29.71,NNW,341,0.0,13.0,32,0.00,,,0.00,WUHU216DAVISVP2,2013-06-29 08:40:00,
2013-06-29 01:45:00,85.3,52.0,29.71,WNW,288,7.0,10.0,32,0.00,,,0.00,WUHU216DAVISVP2,2013-06-29 08:45:00,
2013-06-29 01:50:00,85.2,52.7,29.71,NW,324,5.0,10.0,33,0.00,,,0.00,WUHU216DAVISVP2,2013-06-29 08:50:00,
2013-06-29 01:55:00,85.2,51.9,29.71,WNW,295,2.0,13.0,32,0.00,,,0.00,WUHU216DAVISVP2,2013-06-29 08:55:00,
2013-06-29 02:00:00,85.0,52.5,29.71,NNW,336,6.0,13.0,33,0.00,,,0.00,WUHU216DAVISVP2,2013-06-29 09:00:00,
2013-06-29 02:05:00,84.8,52.4,29.71,NNE,28,5.0,14.0,33,0.00,,,0.00,WUHU216DAVISVP2,2013-06-29 09:05:00,
2013-06-29 02:10:00,84.5,52.1,29.71,North,5,8.0,14.0,33,0.00,,,0.00,WUHU216DAVISVP2,2013-06-29 09:10:00,
2013-06-29 02:15:00,84.6,52.2,29.71,NNE,32,3.0,14.0,33,0.00,,,0.00,WUHU216DAVISVP2,2013-06-29 09:15:00,
2013-06-29 02:20:00,84.5,52.2,29.70,North,5,7.0,14.0,33,0.00,,,0.00,WUHU216DAVISVP2,2013-06-29 09:20:00,
2013-06-29 02:25:00,84.4,52.1,29.70,NNW,348,8.0,12.0,33,0.00,,,0.00,WUHU216DAVISVP2,2013-06-29 09:25:00,
2013-06-29 02:30:00,84.2,52.8,29.70,North,355,3.0,12.0,34,0.00,,,0.00,WUHU216DAVISVP2,2013-06-29 09:30:00,
2013-06-29 02:35:00,84.3,51.9,29.70,NNW,342,1.0,12.0,33,0.00,,,0.00,WUHU216DAVISVP2,2013-06-29 09:35:00,
2013-06-29 02:40:00,84.3,51.9,29.70,North,360,0.0,9.0,33,0.00,,,0.00,WUHU216DAVISVP2,2013-06-29 09:40:00,
2013-06-29 02:45:00,84.0,52.5,29.70,North,5,2.0,8.0,34,0.00,,,0.00,WUHU216DAVISVP2,2013-06-29 09:45:00,
2013-06-29 02:50:00,83.9,52.4,29.70,NNW,339,2.0,8.0,34,0.00,,,0.00,WUHU216DAVISVP2,2013-06-29 09:50:00,
2013-06-29 02:55:00,84.2,52.7,29.69,NE,49,4.0,7.0,34,0.00,,,0.00,WUHU216DAVISVP2,2013-06-29 09:55:00,
2013-06-29 03:00:00,84.8,52.4,29.70,NNW,340,4.0,10.0,33,0.00,,,0.00,WUHU216DAVISVP2,2013-06-29 10:00:00,
2013-06-29 03:05:00,85.0,52.5,29.70,North,355,2.0,10.0,33,0.00,,,0.00,WUHU216DAVISVP2,2013-06-29 10:05:00,
2013-06-29 03:10:00,85.1,52.6,29.70,North,5,3.0,10.0,33,0.00,,,0.00,WUHU216DAVISVP2,2013-06-29 10:10:00,
2013-06-29 03:15:00,85.2,51.9,29.70,East,94,5.0,10.0,32,0.00,,,0.00,WUHU216DAVISVP2,2013-06-29 10:15:00,
2013-06-29 03:21:00,85.4,52.1,29.70,SSW,200,3.0,10.0,32,0.00,,,0.00,WUHU216DAVISVP2,2013-06-29 10:21:00,
2013-06-29 03:26:00,85.3,52.8,29.70,SW,216,8.0,10.0,33,0.00,,,0.00,WUHU216DAVISVP2,2013-06-29 10:26:00,
2013-06-29 03:31:00,85.0,52.5,29.70,SSW,207,7.0,12.0,33,0.00,,,0.00,WUHU216DAVISVP2,2013-06-29 10:31:00,
2013-06-29 03:36:00,84.7,53.1,29.70,SSW,198,6.0,12.0,34,0.00,,,0.00,WUHU216DAVISVP2,2013-06-29 10:36:00,
2013-06-29 03:41:00,84.4,53.0,29.70,South,191,6.0,12.0,34,0.00,,,0.00,WUHU216DAVISVP2,2013-06-29 10:41:00,
2013-06-29 03:46:00,84.1,53.5,29.70,SSW,201,0.0,12.0,35,0.00,,,0.00,WUHU216DAVISVP2,2013-06-29 10:46:00,
2013-06-29 03:51:00,84.0,53.4,29.70,SSW,203,0.0,8.0,35,0.00,,,0.00,WUHU216DAVISVP2,2013-06-29 10:51:00,
2013-06-29 03:56:00,83.7,53.0,29.71,South,177,3.0,8.0,35,0.00,,,0.00,WUHU216DAVISVP2,2013-06-29 10:56:00,
2013-06-29 04:01:00,83.8,53.1,29.71,SSW,198,3.0,6.0,35,0.00,,,0.00,WUHU216DAVISVP2,2013-06-29 11:01:00,
2013-06-29 04:06:00,84.0,53.3,29.71,WNW,294,11.0,12.0,35,0.00,,,0.00,WUHU216DAVISVP2,2013-06-29 11:06:00,
2013-06-29 04:11:00,84.3,53.6,29.71,NW,304,4.0,12.0,35,0.00,,,0.00,WUHU216DAVISVP2,2013-06-29 11:11:00,
2013-06-29 04:16:00,84.2,53.6,29.71,WNW,300,1.0,12.0,35,0.00,,,0.00,WUHU216DAVISVP2,2013-06-29 11:16:00,
2013-06-29 04:21:00,84.1,53.5,29.71,SW,215,1.0,12.0,35,0.00,,,0.00,WUHU216DAVISVP2,2013-06-29 11:21:00,
2013-06-29 04:26:00,83.9,53.3,29.71,SW,215,0.0,8.0,35,0.00,,,0.00,WUHU216DAVISVP2,2013-06-29 11:26:00,
2013-06-29 04:31:00,83.4,52.8,29.71,NW,326,4.0,6.0,35,0.00,,,0.00,WUHU216DAVISVP2,2013-06-29 11:31:00,
2013-06-29 04:36:00,82.9,53.1,29.71,NW,323,5.0,7.0,36,0.00,,,0.00,WUHU216DAVISVP2,2013-06-29 11:36:00,
2013-06-29 04:41:00,82.5,52.7,29.71,NW,321,3.0,7.0,36,0.00,,,0.00,WUHU216DAVISVP2,2013-06-29 11:41:00,
2013-06-29 04:46:00,82.2,52.5,29.71,NW,319,2.0,7.0,36,0.00,,,0.00,WUHU216DAVISVP2,2013-06-29 11:46:00,
2013-06-29 04:51:00,81.7,52.0,29.71,NW,316,0.0,7.0,36,0.00,,,0.00,WUHU216DAVISVP2,2013-06-29 11:51:00,
2013-06-29 04:56:00,80.9,51.3,29.71,NNW,330,4.0,7.0,36,0.00,,,0.00,WUHU216DAVISVP2,2013-06-29 11:56:00,
2013-06-29 05:01:00,79.1,51.2,29.71,North,355,7.0,7.0,38,0.00,,,0.00,WUHU216DAVISVP2,2013-06-29 12:01:00,
2013-06-29 05:06:00,77.9,51.5,29.72,North,355,3.0,7.0,40,0.00,,,0.00,WUHU216DAVISVP2,2013-06-29 12:06:00,
2013-06-29 05:12:00,77.9,51.5,29.71,NNW,344,3.0,8.0,40,0.00,,,0.00,WUHU216DAVISVP2,2013-06-29 12:12:00,
2013-06-29 05:17:00,78.4,52.0,29.71,NNW,344,4.0,8.0,40,0.00,,,0.00,WUHU216DAVISVP2,2013-06-29 12:17:00,
2013-06-29 05:22:00,79.1,51.9,29.71,NNW,344,3.0,8.0,39,0.00,,,0.00,WUHU216DAVISVP2,2013-06-29 12:22:00,
2013-06-29 05:27:00,79.2,52.7,29.71,NNW,344,3.0,8.0,40,0.00,,,0.00,WUHU216DAVISVP2,2013-06-29 12:27:00,
2013-06-29 05:32:00,79.6,51.7,29.71,NNW,344,6.0,6.0,38,0.00,,,0.00,WUHU216DAVISVP2,2013-06-29 12:32:00,
2013-06-29 05:37:00,79.5,52.3,29.72,North,350,5.0,8.0,39,0.00,,,0.00,WUHU216DAVISVP2,2013-06-29 12:37:00,
2013-06-29 05:42:00,79.8,53.3,29.71,North,350,2.0,8.0,40,0.00,,,0.00,WUHU216DAVISVP2,2013-06-29 12:42:00,
2013-06-29 05:47:00,80.0,52.8,29.71,North,350,2.0,8.0,39,0.00,,,0.00,WUHU216DAVISVP2,2013-06-29 12:47:00,
2013-06-29 05:52:00,80.2,53.0,29.71,North,350,5.0,8.0,39,0.00,,,0.00,WUHU216DAVISVP2,2013-06-29 12:52:00,
2013-06-29 05:57:00,80.3,53.0,29.71,North,350,1.0,6.0,39,0.00,,,0.00,WUHU216DAVISVP2,2013-06-29 12:57:00,
2013-06-29 06:02:00,80.5,53.2,29.71,North,350,0.0,6.0,39,0.00,,,0.00,WUHU216DAVISVP2,2013-06-29 13:02:00,
2013-06-29 06:07:00,80.6,53.3,29.71,North,350,0.0,6.0,39,0.00,,,0.00,WUHU216DAVISVP2,2013-06-29 13:07:00,
2013-06-29 06:12:00,80.3,53.0,29.71,WSW,252,4.0,5.0,39,0.00,,,0.00,WUHU216DAVISVP2,2013-06-29 13:12:00,
2013-06-29 06:17:00,80.7,53.4,29.70,WSW,252,0.0,5.0,39,0.00,,,0.00,WUHU216DAVISVP2,2013-06-29 13:17:00,
2013-06-29 06:22:00,81.1,53.7,29.70,NNE,14,1.0,5.0,39,0.00,,,0.00,WUHU216DAVISVP2,2013-06-29 13:22:00,
2013-06-29 06:27:00,81.5,53.3,29.70,NNE,13,0.0,5.0,38,0.00,,,0.00,WUHU216DAVISVP2,2013-06-29 13:27:00,
2013-06-29 06:32:00,82.1,53.9,29.70,NNE,31,4.0,5.0,38,0.00,,,0.00,WUHU216DAVISVP2,2013-06-29 13:32:00,
2013-06-29 06:37:00,83.0,53.2,29.70,North,355,6.0,9.0,36,0.00,,,0.00,WUHU216DAVISVP2,2013-06-29 13:37:00,
2013-06-29 06:42:00,83.5,53.6,29.70,NNE,26,1.0,9.0,36,0.00,,,0.00,WUHU216DAVISVP2,2013-06-29 13:42:00,
2013-06-29 06:47:00,84.1,53.4,29.70,NNE,26,2.0,9.0,35,0.00,,,0.00,WUHU216DAVISVP2,2013-06-29 13:47:00,
2013-06-29 06:52:00,84.7,53.1,29.70,ENE,77,1.0,9.0,34,0.00,,,0.00,WUHU216DAVISVP2,2013-06-29 13:52:00,
2013-06-29 06:57:00,85.2,53.5,29.71,SE,132,3.0,7.0,34,0.00,,,0.00,WUHU216DAVISVP2,2013-06-29 13:57:00,
2013-06-29 07:02:00,85.5,53.0,29.71,SE,132,4.0,7.0,33,0.00,,,0.00,WUHU216DAVISVP2,2013-06-29 14:02:00,
2013-06-29 07:08:00,85.6,53.1,29.71,East,93,1.0,6.0,33,0.00,,,0.00,WUHU216DAVISVP2,2013-06-29 14:08:00,
2013-06-29 07:13:00,85.9,53.5,29.70,East,93,1.0,6.0,33,0.00,,,0.00,WUHU216DAVISVP2,2013-06-29 14:13:00,
2013-06-29 07:18:00,86.2,53.7,29.70,SE,146,5.0,6.0,33,0.00,,,0.00,WUHU216DAVISVP2,2013-06-29 14:18:00,
2013-06-29 07:23:00,86.9,53.5,29.70,SW,222,2.0,6.0,32,0.00,,,0.00,WUHU216DAVISVP2,2013-06-29 14:23:00,
2013-06-29 07:28:00,87.7,53.3,29.70,SE,140,2.0,6.0,31,0.00,,,0.00,WUHU216DAVISVP2,2013-06-29 14:28:00,
2013-06-29 07:33:00,88.0,53.6,29.70,SE,141,1.0,6.0,31,0.00,,,0.00,WUHU216DAVISVP2,2013-06-29 14:33:00,
2013-06-29 07:38:00,88.3,53.8,29.70,SE,141,1.0,6.0,31,0.00,,,0.00,WUHU216DAVISVP2,2013-06-29 14:38:00,
2013-06-29 07:43:00,88.5,53.1,29.70,SSE,166,3.0,7.0,30,0.00,,,0.00,WUHU216DAVISVP2,2013-06-29 14:43:00,
2013-06-29 07:48:00,88.7,53.3,29.71,SE,138,2.0,7.0,30,0.00,,,0.00,WUHU216DAVISVP2,2013-06-29 14:48:00,
2013-06-29 07:53:00,89.0,53.4,29.71,West,273,4.0,11.0,30,0.00,,,0.00,WUHU216DAVISVP2,2013-06-29 14:53:00,
2013-06-29 07:58:00,89.2,53.6,29.70,SW,225,14.0,17.0,30,0.00,,,0.00,WUHU216DAVISVP2,2013-06-29 14:58:00,
2013-06-29 08:03:00,89.4,53.0,29.70,SW,217,9.0,17.0,29,0.00,,,0.00,WUHU216DAVISVP2,2013-06-29 15:03:00,
2013-06-29 08:08:00,89.5,53.0,29.70,WSW,238,15.0,17.0,29,0.00,,,0.00,WUHU216DAVISVP2,2013-06-29 15:08:00,
2013-06-29 08:13:00,89.9,53.4,29.70,SW,230,10.0,18.0,29,0.00,,,0.00,WUHU216DAVISVP2,2013-06-29 15:13:00,
2013-06-29 08:18:00,90.4,52.9,29.70,SW,230,9.0,18.0,28,0.00,,,0.00,WUHU216DAVISVP2,2013-06-29 15:18:00,
2013-06-29 08:23:00,90.8,53.2,29.70,SW,217,11.0,18.0,28,0.00,,,0.00,WUHU216DAVISVP2,2013-06-29 15:23:00,
2013-06-29 08:28:00,91.1,53.5,29.70,SW,231,7.0,17.0,28,0.00,,,0.00,WUHU216DAVISVP2,2013-06-29 15:28:00,
2013-06-29 08:33:00,91.5,53.8,29.70,SW,221,7.0,17.0,28,0.00,,,0.00,WUHU216DAVISVP2,2013-06-29 15:33:00,
2013-06-29 08:38:00,92.0,53.2,29.70,South,184,7.0,16.0,27,0.00,,,0.00,WUHU216DAVISVP2,2013-06-29 15:38:00,
2013-06-29 08:43:00,92.2,53.4,29.70,SW,219,4.0,15.0,27,0.00,,,0.00,WUHU216DAVISVP2,2013-06-29 15:43:00,
2013-06-29 08:49:00,92.5,52.6,29.70,SSW,200,7.0,16.0,26,0.00,,,0.00,WUHU216DAVISVP2,2013-06-29 15:49:00,
2013-06-29 08:54:00,92.7,52.7,29.70,SSE,165,11.0,16.0,26,0.00,,,0.00,WUHU216DAVISVP2,2013-06-29 15:54:00,
2013-06-29 08:59:00,93.1,53.1,29.70,SSW,212,9.0,16.0,26,0.00,,,0.00,WUHU216DAVISVP2,2013-06-29 15:59:00,
2013-06-29 09:04:00,93.3,53.2,29.70,SSW,211,8.0,16.0,26,0.00,,,0.00,WUHU216DAVISVP2,2013-06-29 16:04:00,
2013-06-29 09:09:00,93.8,52.6,29.70,SW,223,8.0,16.0,25,0.00,,,0.00,WUHU216DAVISVP2,2013-06-29 16:09:00,
2013-06-29 09:14:00,94.2,52.9,29.70,SSE,167,7.0,16.0,25,0.00,,,0.00,WUHU216DAVISVP2,2013-06-29 16:14:00,
2013-06-29 09:19:00,94.8,52.4,29.70,SW,235,3.0,16.0,24,0.00,,,0.00,WUHU216DAVISVP2,2013-06-29 16:19:00,
2013-06-29 09:24:00,95.1,51.5,29.70,South,187,4.0,10.0,23,0.00,,,0.00,WUHU216DAVISVP2,2013-06-29 16:24:00,
2013-06-29 09:29:00,95.5,51.8,29.70,SSW,194,5.0,9.0,23,0.00,,,0.00,WUHU216DAVISVP2,2013-06-29 16:29:00,
2013-06-29 09:34:00,95.4,52.9,29.70,SSE,148,7.0,12.0,24,0.00,,,0.00,WUHU216DAVISVP2,2013-06-29 16:34:00,
2013-06-29 09:39:00,95.3,52.8,29.70,SSE,161,7.0,15.0,24,0.00,,,0.00,WUHU216DAVISVP2,2013-06-29 16:39:00,
2013-06-29 09:44:00,95.7,53.1,29.70,WSW,241,8.0,15.0,24,0.00,,,0.00,WUHU216DAVISVP2,2013-06-29 16:44:00,
2013-06-29 09:49:00,96.3,52.5,29.69,SSW,197,7.0,15.0,23,0.00,,,0.00,WUHU216DAVISVP2,2013-06-29 16:49:00,
2013-06-29 09:54:00,96.7,52.8,29.69,SW,224,7.0,15.0,23,0.00,,,0.00,WUHU216DAVISVP2,2013-06-29 16:54:00,
2013-06-29 09:59:00,97.0,51.9,29.69,SSW,200,7.0,13.0,22,0.00,,,0.00,WUHU216DAVISVP2,2013-06-29 16:59:00,
2013-06-29 10:04:00,97.0,51.9,29.69,SW,215,6.0,13.0,22,0.00,,,0.00,WUHU216DAVISVP2,2013-06-29 17:04:00,
2013-06-29 10:09:00,97.4,50.9,29.69,South,183,8.0,13.0,21,0.00,,,0.00,WUHU216DAVISVP2,2013-06-29 17:09:00,
2013-06-29 10:14:00,97.5,51.0,29.69,South,190,5.0,14.0,21,0.00,,,0.00,WUHU216DAVISVP2,2013-06-29 17:14:00,
2013-06-29 10:19:00,97.5,51.0,29.69,SSW,211,10.0,14.0,21,0.00,,,0.00,WUHU216DAVISVP2,2013-06-29 17:19:00,
2013-06-29 10:24:00,97.8,51.3,29.69,SSW,196,10.0,14.0,21,0.00,,,0.00,WUHU216DAVISVP2,2013-06-29 17:24:00,
2013-06-29 10:29:00,98.0,51.4,29.69,SSE,168,8.0,14.0,21,0.00,,,0.00,WUHU216DAVISVP2,2013-06-29 17:29:00,
2013-06-29 10:34:00,97.7,51.2,29.69,South,188,5.0,13.0,21,0.00,,,0.00,WUHU216DAVISVP2,2013-06-29 17:34:00,
2013-06-29 10:39:00,98.2,51.6,29.69,SSW,209,3.0,13.0,21,0.00,,,0.00,WUHU216DAVISVP2,2013-06-29 17:39:00,
2013-06-29 10:44:00,98.5,50.5,29.69,SSE,162,6.0,14.0,20,0.00,,,0.00,WUHU216DAVISVP2,2013-06-29 17:44:00,
2013-06-29 10:49:00,98.4,51.8,29.69,SSE,161,11.0,14.0,21,0.00,,,0.00,WUHU216DAVISVP2,2013-06-29 17:49:00,
2013-06-29 10:54:00,98.7,50.7,29.69,SE,129,10.0,14.0,20,0.00,,,0.00,WUHU216DAVISVP2,2013-06-29 17:54:00,
2013-06-29 10:59:00,98.8,50.8,29.69,SSE,165,8.0,13.0,20,0.00,,,0.00,WUHU216DAVISVP2,2013-06-29 17:59:00,
2013-06-29 11:04:00,99.4,51.3,29.69,SSE,153,12.0,14.0,20,0.00,,,0.00,WUHU216DAVISVP2,2013-06-29 18:04:00,
2013-06-29 11:09:00,99.5,50.0,29.69,SSE,155,9.0,14.0,19,0.00,,,0.00,WUHU216DAVISVP2,2013-06-29 18:09:00,
2013-06-29 11:14:00,99.4,49.9,29.68,SE,136,6.0,14.0,19,0.00,,,0.00,WUHU216DAVISVP2,2013-06-29 18:14:00,
2013-06-29 11:19:00,99.6,50.1,29.69,SE,142,6.0,14.0,19,0.00,,,0.00,WUHU216DAVISVP2,2013-06-29 18:19:00,
2013-06-29 11:24:00,100.0,50.4,29.68,SE,141,9.0,14.0,19,0.00,,,0.00,WUHU216DAVISVP2,2013-06-29 18:24:00,
2013-06-29 11:29:00,100.5,49.3,29.68,SSE,160,6.0,13.0,18,0.00,,,0.00,WUHU216DAVISVP2,2013-06-29 18:29:00,
2013-06-29 11:34:00,100.5,49.3,29.68,SW,232,3.0,14.0,18,0.00,,,0.00,WUHU216DAVISVP2,2013-06-29 18:34:00,
2013-06-29 11:39:00,100.7,49.5,29.68,South,171,2.0,14.0,18,0.00,,,0.00,WUHU216DAVISVP2,2013-06-29 18:39:00,
2013-06-29 11:44:00,101.3,51.4,29.68,ESE,122,7.0,14.0,19,0.00,,,0.00,WUHU216DAVISVP2,2013-06-29 18:44:00,
2013-06-29 11:49:00,101.8,50.4,29.68,SSW,204,0.0,14.0,18,0.00,,,0.00,WUHU216DAVISVP2,2013-06-29 18:49:00,
2013-06-29 11:54:00,102.1,50.6,29.68,SE,127,3.0,13.0,18,0.00,,,0.00,WUHU216DAVISVP2,2013-06-29 18:54:00,
2013-06-29 11:59:00,102.0,50.5,29.67,NE,54,5.0,14.0,18,0.00,,,0.00,WUHU216DAVISVP2,2013-06-29 18:59:00,
2013-06-29 12:04:00,102.2,49.1,29.67,ESE,113,7.0,14.0,17,0.00,,,0.00,WUHU216DAVISVP2,2013-06-29 19:04:00,
2013-06-29 12:09:00,102.1,49.1,29.67,ESE,111,8.0,15.0,17,0.00,,,0.00,WUHU216DAVISVP2,2013-06-29 19:09:00,
2013-06-29 12:14:00,102.1,49.1,29.67,SSE,164,6.0,15.0,17,0.00,,,0.00,WUHU216DAVISVP2,2013-06-29 19:14:00,
2013-06-29 12:19:00,102.3,49.2,29.67,ESE,114,7.0,15.0,17,0.00,,,0.00,WUHU216DAVISVP2,2013-06-29 19:19:00,
2013-06-29 12:24:00,102.8,49.6,29.67,East,86,7.0,15.0,17,0.00,,,0.00,WUHU216DAVISVP2,2013-06-29 19:24:00,
2013-06-29 12:29:00,102.7,49.6,29.66,ESE,115,4.0,14.0,17,0.00,,,0.00,WUHU216DAVISVP2,2013-06-29 19:29:00,
2013-06-29 12:34:00,102.8,48.0,29.66,SE,135,4.0,11.0,16,0.00,,,0.00,WUHU216DAVISVP2,2013-06-29 19:34:00,
2013-06-29 12:39:00,103.2,48.3,29.66,ESE,102,3.0,12.0,16,0.00,,,0.00,WUHU216DAVISVP2,2013-06-29 19:39:00,
2013-06-29 12:44:00,103.8,47.0,29.66,East,89,5.0,12.0,15,0.00,,,0.00,WUHU216DAVISVP2,2013-06-29 19:44:00,
2013-06-29 12:49:00,104.0,47.2,29.66,ESE,111,2.0,12.0,15,0.00,,,0.00,WUHU216DAVISVP2,2013-06-29 19:49:00,
2013-06-29 12:54:00,104.0,47.2,29.66,East,92,3.0,13.0,15,0.00,,,0.00,WUHU216DAVISVP2,2013-06-29 19:54:00,
2013-06-29 12:59:00,104.3,47.5,29.65,SSE,158,5.0,13.0,15,0.00,,,0.00,WUHU216DAVISVP2,2013-06-29 19:59:00,
2013-06-29 13:04:00,104.3,47.5,29.65,South,190,9.0,14.0,15,0.00,,,0.00,WUHU216DAVISVP2,2013-06-29 20:04:00,
2013-06-29 13:09:00,104.3,47.4,29.65,South,172,4.0,14.0,15,0.00,,,0.00,WUHU216DAVISVP2,2013-06-29 20:09:00,
2013-06-29 13:14:00,104.6,47.7,29.65,SE,142,10.0,14.0,15,0.00,,,0.00,WUHU216DAVISVP2,2013-06-29 20:14:00,
2013-06-29 13:20:00,104.7,45.9,29.65,ESE,114,4.0,14.0,14,0.00,,,0.00,WUHU216DAVISVP2,2013-06-29 20:20:00,
2013-06-29 13:25:00,105.2,46.3,29.65,SSE,153,6.0,14.0,14,0.00,,,0.00,WUHU216DAVISVP2,2013-06-29 20:25:00,
2013-06-29 13:30:00,105.2,46.3,29.64,SE,146,4.0,14.0,14,0.00,,,0.00,WUHU216DAVISVP2,2013-06-29 20:30:00,
2013-06-29 13:35:00,105.4,46.4,29.64,ESE,113,3.0,14.0,14,0.00,,,0.00,WUHU216DAVISVP2,2013-06-29 20:35:00,
2013-06-29 13:40:00,105.2,48.2,29.64,ESE,105,3.0,14.0,15,0.00,,,0.00,WUHU216DAVISVP2,2013-06-29 20:40:00,
2013-06-29 13:45:00,105.3,48.2,29.64,ESE,111,8.0,14.0,15,0.00,,,0.00,WUHU216DAVISVP2,2013-06-29 20:45:00,
2013-06-29 13:50:00,105.6,46.6,29.64,SE,132,7.0,14.0,14,0.00,,,0.00,WUHU216DAVISVP2,2013-06-29 20:50:00,
2013-06-29 13:55:00,105.2,46.3,29.64,East,86,3.0,13.0,14,0.00,,,0.00,WUHU216DAVISVP2,2013-06-29 20:55:00,
2013-06-29 14:00:00,105.7,46.7,29.63,East,79,7.0,13.0,14,0.00,,,0.00,WUHU216DAVISVP2,2013-06-29 21:00:00,
2013-06-29 14:05:00,105.8,46.7,29.63,SSW,197,13.0,13.0,14,0.00,,,0.00,WUHU216DAVISVP2,2013-06-29 21:05:00,
2013-06-29 14:10:00,105.9,44.8,29.63,South,171,1.0,14.0,13,0.00,,,0.00,WUHU216DAVISVP2,2013-06-29 21:10:00,
2013-06-29 14:15:00,106.3,45.1,29.63,South,179,11.0,14.0,13,0.00,,,0.00,WUHU216DAVISVP2,2013-06-29 21:15:00,
2013-06-29 14:20:00,106.2,43.1,29.63,South,180,6.0,14.0,12,0.00,,,0.00,WUHU216DAVISVP2,2013-06-29 21:20:00,
2013-06-29 14:25:00,106.6,45.5,29.62,WNW,293,5.0,14.0,13,0.00,,,0.00,WUHU216DAVISVP2,2013-06-29 21:25:00,
2013-06-29 14:30:00,107.1,41.2,29.62,South,175,10.0,15.0,11,0.00,,,0.00,WUHU216DAVISVP2,2013-06-29 21:30:00,
2013-06-29 14:35:00,106.7,40.9,29.62,SE,142,2.0,15.0,11,0.00,,,0.00,WUHU216DAVISVP2,2013-06-29 21:35:00,
2013-06-29 14:40:00,106.9,41.1,29.62,West,267,5.0,15.0,11,0.00,,,0.00,WUHU216DAVISVP2,2013-06-29 21:40:00,
2013-06-29 14:45:00,106.5,40.8,29.62,East,92,6.0,15.0,11,0.00,,,0.00,WUHU216DAVISVP2,2013-06-29 21:45:00,
2013-06-29 14:50:00,107.0,38.6,29.61,South,186,11.0,13.0,10,0.00,,,0.00,WUHU216DAVISVP2,2013-06-29 21:50:00,
2013-06-29 14:55:00,107.4,36.2,29.61,SSW,200,0.0,13.0,9,0.00,,,0.00,WUHU216DAVISVP2,2013-06-29 21:55:00,
2013-06-29 15:00:00,108.1,36.7,29.61,ESE,120,7.0,12.0,9,0.00,,,0.00,WUHU216DAVISVP2,2013-06-29 22:00:00,
2013-06-29 15:05:00,108.5,37.0,29.60,ESE,118,10.0,16.0,9,0.00,,,0.00,WUHU216DAVISVP2,2013-06-29 22:05:00,
2013-06-29 15:10:00,108.5,37.0,29.60,SSE,165,8.0,16.0,9,0.00,,,0.00,WUHU216DAVISVP2,2013-06-29 22:10:00,
2013-06-29 15:16:00,108.8,40.0,29.60,SW,233,11.0,16.0,10,0.00,,,0.00,WUHU216DAVISVP2,2013-06-29 22:16:00,
2013-06-29 15:21:00,108.8,42.5,29.60,SSE,164,7.0,16.0,11,0.00,,,0.00,WUHU216DAVISVP2,2013-06-29 22:21:00,
2013-06-29 15:26:00,108.3,42.1,29.60,SSW,193,4.0,15.0,11,0.00,,,0.00,WUHU216DAVISVP2,2013-06-29 22:26:00,
2013-06-29 15:31:00,108.4,39.7,29.60,WSW,242,11.0,15.0,10,0.00,,,0.00,WUHU216DAVISVP2,2013-06-29 22:31:00,
2013-06-29 15:36:00,108.3,39.6,29.60,SW,223,9.0,19.0,10,0.00,,,0.00,WUHU216DAVISVP2,2013-06-29 22:36:00,
2013-06-29 15:41:00,107.8,39.2,29.60,SW,221,0.0,19.0,10,0.00,,,0.00,WUHU216DAVISVP2,2013-06-29 22:41:00,
2013-06-29 15:46:00,108.2,42.1,29.60,SSW,193,12.0,19.0,11,0.00,,,0.00,WUHU216DAVISVP2,2013-06-29 22:46:00,
2013-06-29 15:51:00,107.8,41.8,29.60,SW,230,12.0,21.0,11,0.00,,,0.00,WUHU216DAVISVP2,2013-06-29 22:51:00,
2013-06-29 15:56:00,107.6,41.6,29.60,SW,216,14.0,21.0,11,0.00,,,0.00,WUHU216DAVISVP2,2013-06-29 22:56:00,
2013-06-29 16:01:00,106.9,41.1,29.60,SW,214,16.0,24.0,11,0.00,,,0.00,WUHU216DAVISVP2,2013-06-29 23:01:00,
2013-06-29 16:06:00,106.8,43.3,29.60,WSW,243,10.0,24.0,12,0.00,,,0.00,WUHU216DAVISVP2,2013-06-29 23:06:00,
2013-06-29 16:11:00,106.5,43.3,29.59,South,188,10.0,24.0,12,0.00,,,0.00,WUHU216DAVISVP2,2013-06-29 23:11:00,
2013-06-29 16:16:00,106.8,43.5,29.59,WSW,240,7.0,24.0,12,0.00,,,0.00,WUHU216DAVISVP2,2013-06-29 23:16:00,
2013-06-29 16:21:00,107.2,41.6,29.59,SW,232,10.0,24.0,11,0.00,,,0.00,WUHU216DAVISVP2,2013-06-29 23:21:00,
2013-06-29 16:26:00,107.0,41.4,29.59,WSW,253,7.0,24.0,11,0.00,,,0.00,WUHU216DAVISVP2,2013-06-29 23:26:00,
2013-06-29 16:31:00,107.1,43.7,29.59,SSW,200,10.0,20.0,12,0.00,,,0.00,WUHU216DAVISVP2,2013-06-29 23:31:00,
2013-06-29 16:36:00,106.6,43.4,29.59,SW,234,16.0,21.0,12,0.00,,,0.00,WUHU216DAVISVP2,2013-06-29 23:36:00,
2013-06-29 16:41:00,106.1,40.5,29.59,WSW,252,15.0,22.0,11,0.00,,,0.00,WUHU216DAVISVP2,2013-06-29 23:41:00,
2013-06-29 16:46:00,106.0,42.7,29.59,SW,227,7.0,22.0,12,0.00,,,0.00,WUHU216DAVISVP2,2013-06-29 23:46:00,
2013-06-29 16:51:00,106.0,42.7,29.59,SW,223,14.0,22.0,12,0.00,,,0.00,WUHU216DAVISVP2,2013-06-29 23:51:00,
2013-06-29 16:56:00,105.7,44.7,29.59,SW,232,19.0,22.0,13,0.00,,,0.00,WUHU216DAVISVP2,2013-06-29 23:56:00,
2013-06-29 17:02:00,105.3,44.3,29.59,WSW,242,10.0,22.0,13,0.00,,,0.00,WUHU216DAVISVP2,2013-06-30 00:02:00,
2013-06-29 17:07:00,105.5,42.3,29.59,WSW,251,10.0,22.0,12,0.00,,,0.00,WUHU216DAVISVP2,2013-06-30 00:07:00,
2013-06-29 17:12:00,105.3,46.4,29.59,WSW,240,16.0,22.0,14,0.00,,,0.00,WUHU216DAVISVP2,2013-06-30 00:12:00,
2013-06-29 17:17:00,105.0,46.2,29.59,WSW,242,13.0,22.0,14,0.00,,,0.00,WUHU216DAVISVP2,2013-06-30 00:17:00,
2013-06-29 17:22:00,104.5,45.8,29.59,SW,232,17.0,22.0,14,0.00,,,0.00,WUHU216DAVISVP2,2013-06-30 00:22:00,
2013-06-29 17:27:00,104.5,45.8,29.59,SW,235,21.0,22.0,14,0.00,,,0.00,WUHU216DAVISVP2,2013-06-30 00:27:00,
2013-06-29 17:32:00,103.8,47.1,29.59,WSW,249,10.0,22.0,15,0.00,,,0.00,WUHU216DAVISVP2,2013-06-30 00:32:00,
2013-06-29 17:37:00,103.5,46.8,29.59,SSW,211,14.0,22.0,15,0.00,,,0.00,WUHU216DAVISVP2,2013-06-30 00:37:00,
2013-06-29 17:42:00,103.0,46.4,29.59,SW,232,14.0,22.0,15,0.00,,,0.00,WUHU216DAVISVP2,2013-06-30 00:42:00,
2013-06-29 17:47:00,102.8,48.0,29.59,WSW,252,14.0,22.0,16,0.00,,,0.00,WUHU216DAVISVP2,2013-06-30 00:47:00,
2013-06-29 17:52:00,102.9,48.1,29.58,SW,219,14.0,24.0,16,0.00,,,0.00,WUHU216DAVISVP2,2013-06-30 00:52:00,
2013-06-29 17:57:00,102.1,47.4,29.59,SW,228,17.0,24.0,16,0.00,,,0.00,WUHU216DAVISVP2,2013-06-30 00:57:00,
2013-06-29 18:02:00,102.0,47.4,29.59,SW,236,15.0,24.0,16,0.00,,,0.00,WUHU216DAVISVP2,2013-06-30 01:02:00,
2013-06-29 18:07:00,101.9,47.3,29.59,WSW,238,20.0,24.0,16,0.00,,,0.00,WUHU216DAVISVP2,2013-06-30 01:07:00,
2013-06-29 18:12:00,101.5,48.6,29.59,WSW,240,18.0,24.0,17,0.00,,,0.00,WUHU216DAVISVP2,2013-06-30 01:12:00,
2013-06-29 18:17:00,101.4,48.5,29.59,SW,224,17.0,24.0,17,0.00,,,0.00,WUHU216DAVISVP2,2013-06-30 01:17:00,
2013-06-29 18:22:00,101.1,48.3,29.59,SW,236,13.0,24.0,17,0.00,,,0.00,WUHU216DAVISVP2,2013-06-30 01:22:00,
2013-06-29 18:27:00,100.9,48.1,29.58,WSW,237,15.0,22.0,17,0.00,,,0.00,WUHU216DAVISVP2,2013-06-30 01:27:00,
2013-06-29 18:32:00,100.7,47.9,29.58,WSW,242,17.0,25.0,17,0.00,,,0.00,WUHU216DAVISVP2,2013-06-30 01:32:00,
2013-06-29 18:38:00,100.8,48.0,29.59,SW,232,11.0,25.0,17,0.00,,,0.00,WUHU216DAVISVP2,2013-06-30 01:38:00,
2013-06-29 18:43:00,100.4,47.7,29.58,SW,232,12.0,25.0,17,0.00,,,0.00,WUHU216DAVISVP2,2013-06-30 01:43:00,
2013-06-29 18:48:00,100.3,47.6,29.58,WSW,245,16.0,25.0,17,0.00,,,0.00,WUHU216DAVISVP2,2013-06-30 01:48:00,
2013-06-29 18:53:00,99.7,48.7,29.59,SW,223,19.0,24.0,18,0.00,,,0.00,WUHU216DAVISVP2,2013-06-30 01:53:00,
2013-06-29 18:58:00,99.4,48.4,29.59,SW,229,17.0,24.0,18,0.00,,,0.00,WUHU216DAVISVP2,2013-06-30 01:58:00,
2013-06-29 19:03:00,98.9,48.0,29.59,SW,236,12.0,24.0,18,0.00,,,0.00,WUHU216DAVISVP2,2013-06-30 02:03:00,
2013-06-29 19:08:00,98.6,49.2,29.59,SW,227,16.0,24.0,19,0.00,,,0.00,WUHU216DAVISVP2,2013-06-30 02:08:00,
2013-06-29 19:13:00,98.1,48.8,29.59,SW,226,15.0,23.0,19,0.00,,,0.00,WUHU216DAVISVP2,2013-06-30 02:13:00,
2013-06-29 19:18:00,97.7,48.5,29.59,WSW,248,16.0,25.0,19,0.00,,,0.00,WUHU216DAVISVP2,2013-06-30 02:18:00,
2013-06-29 19:23:00,97.2,49.4,29.59,SW,232,18.0,27.0,20,0.00,,,0.00,WUHU216DAVISVP2,2013-06-30 02:23:00,
2013-06-29 19:28:00,96.6,49.0,29.59,SW,233,22.0,28.0,20,0.00,,,0.00,WUHU216DAVISVP2,2013-06-30 02:28:00,
2013-06-29 19:33:00,96.2,48.6,29.59,WSW,257,13.0,28.0,20,0.00,,,0.00,WUHU216DAVISVP2,2013-06-30 02:33:00,
2013-06-29 19:38:00,96.0,48.5,29.59,WSW,243,14.0,28.0,20,0.00,,,0.00,WUHU216DAVISVP2,2013-06-30 02:38:00,
2013-06-29 19:43:00,95.8,49.6,29.59,WSW,238,13.0,28.0,21,0.00,,,0.00,WUHU216DAVISVP2,2013-06-30 02:43:00,
2013-06-29 19:48:00,95.5,49.4,29.59,WSW,245,19.0,26.0,21,0.00,,,0.00,WUHU216DAVISVP2,2013-06-30 02:48:00,
2013-06-29 19:53:00,95.3,49.2,29.59,SW,229,15.0,26.0,21,0.00,,,0.00,WUHU216DAVISVP2,2013-06-30 02:53:00,
2013-06-29 19:58:00,95.1,49.0,29.59,WSW,250,16.0,26.0,21,0.00,,,0.00,WUHU216DAVISVP2,2013-06-30 02:58:00,
2013-06-29 20:03:00,94.9,48.9,29.59,SW,227,14.0,26.0,21,0.00,,,0.00,WUHU216DAVISVP2,2013-06-30 03:03:00,
2013-06-29 20:08:00,94.7,48.7,29.59,SW,229,14.0,22.0,21,0.00,,,0.00,WUHU216DAVISVP2,2013-06-30 03:08:00,
2013-06-29 20:13:00,94.6,48.6,29.59,SW,225,12.0,20.0,21,0.00,,,0.00,WUHU216DAVISVP2,2013-06-30 03:13:00,
2013-06-29 20:18:00,94.5,48.5,29.59,SW,226,12.0,20.0,21,0.00,,,0.00,WUHU216DAVISVP2,2013-06-30 03:18:00,
2013-06-29 20:23:00,94.2,48.3,29.59,SW,230,18.0,20.0,21,0.00,,,0.00,WUHU216DAVISVP2,2013-06-30 03:23:00,
2013-06-29 20:28:00,94.1,48.2,29.59,SW,231,13.0,20.0,21,0.00,,,0.00,WUHU216DAVISVP2,2013-06-30 03:28:00,
2013-06-29 20:34:00,93.8,48.0,29.59,SW,232,8.0,20.0,21,0.00,,,0.00,WUHU216DAVISVP2,2013-06-30 03:34:00,
2013-06-29 20:44:00,93.7,47.9,29.60,SW,225,9.0,18.0,21,0.00,,,0.00,WUHU216DAVISVP2,2013-06-30 03:44:00,
2013-06-29 20:49:00,93.6,47.8,29.60,SW,225,10.0,18.0,21,0.00,,,0.00,WUHU216DAVISVP2,2013-06-30 03:49:00,
2013-06-29 20:54:00,93.3,48.8,29.60,SW,223,10.0,18.0,22,0.00,,,0.00,WUHU216DAVISVP2,2013-06-30 03:54:00,
2013-06-29 20:59:00,93.3,47.5,29.60,WSW,250,6.0,18.0,21,0.00,,,0.00,WUHU216DAVISVP2,2013-06-30 03:59:00,
2013-06-29 21:04:00,93.5,47.7,29.61,SSW,209,5.0,18.0,21,0.00,,,0.00,WUHU216DAVISVP2,2013-06-30 04:04:00,
2013-06-29 21:09:00,93.2,47.5,29.61,WSW,247,7.0,18.0,21,0.00,,,0.00,WUHU216DAVISVP2,2013-06-30 04:09:00,
2013-06-29 21:14:00,92.8,48.4,29.61,SW,221,6.0,15.0,22,0.00,,,0.00,WUHU216DAVISVP2,2013-06-30 04:14:00,
2013-06-29 21:19:00,92.5,48.1,29.61,WSW,245,14.0,20.0,22,0.00,,,0.00,WUHU216DAVISVP2,2013-06-30 04:19:00,
2013-06-29 21:24:00,92.5,48.1,29.61,SW,234,16.0,20.0,22,0.00,,,0.00,WUHU216DAVISVP2,2013-06-30 04:24:00,
2013-06-29 21:29:00,92.2,47.9,29.61,WSW,243,15.0,22.0,22,0.00,,,0.00,WUHU216DAVISVP2,2013-06-30 04:29:00,
2013-06-29 21:34:00,92.0,48.9,29.61,WSW,240,12.0,22.0,23,0.00,,,0.00,WUHU216DAVISVP2,2013-06-30 04:34:00,
2013-06-29 21:39:00,91.8,48.7,29.62,SW,219,10.0,22.0,23,0.00,,,0.00,WUHU216DAVISVP2,2013-06-30 04:39:00,
2013-06-29 21:44:00,91.6,48.5,29.62,SW,229,3.0,22.0,23,0.00,,,0.00,WUHU216DAVISVP2,2013-06-30 04:44:00,
2013-06-29 21:49:00,91.4,48.4,29.62,WNW,289,8.0,19.0,23,0.00,,,0.00,WUHU216DAVISVP2,2013-06-30 04:49:00,
2013-06-29 21:54:00,91.2,48.2,29.62,SW,228,7.0,18.0,23,0.00,,,0.00,WUHU216DAVISVP2,2013-06-30 04:54:00,
2013-06-29 22:00:00,91.2,48.2,29.62,WNW,283,0.0,17.0,23,0.00,,,0.00,WUHU216DAVISVP2,2013-06-30 05:00:00,
2013-06-29 22:05:00,91.0,48.0,29.62,South,181,5.0,13.0,23,0.00,,,0.00,WUHU216DAVISVP2,2013-06-30 05:05:00,
2013-06-29 22:10:00,91.0,48.0,29.62,WNW,285,5.0,12.0,23,0.00,,,0.00,WUHU216DAVISVP2,2013-06-30 05:10:00,
2013-06-29 22:15:00,90.9,47.9,29.62,WSW,241,8.0,14.0,23,0.00,,,0.00,WUHU216DAVISVP2,2013-06-30 05:15:00,
2013-06-29 22:20:00,90.7,48.9,29.62,WSW,245,9.0,16.0,24,0.00,,,0.00,WUHU216DAVISVP2,2013-06-30 05:20:00,
2013-06-29 22:25:00,90.6,48.8,29.62,WSW,248,15.0,17.0,24,0.00,,,0.00,WUHU216DAVISVP2,2013-06-30 05:25:00,
2013-06-29 22:30:00,90.4,48.6,29.62,West,271,6.0,17.0,24,0.00,,,0.00,WUHU216DAVISVP2,2013-06-30 05:30:00,
2013-06-29 22:35:00,90.1,48.4,29.63,WNW,294,6.0,17.0,24,0.00,,,0.00,WUHU216DAVISVP2,2013-06-30 05:35:00,
2013-06-29 22:40:00,90.0,48.3,29.62,WNW,287,4.0,17.0,24,0.00,,,0.00,WUHU216DAVISVP2,2013-06-30 05:40:00,
2013-06-29 22:45:00,89.7,48.1,29.62,West,259,8.0,16.0,24,0.00,,,0.00,WUHU216DAVISVP2,2013-06-30 05:45:00,
2013-06-29 22:50:00,89.8,48.1,29.63,WNW,283,2.0,16.0,24,0.00,,,0.00,WUHU216DAVISVP2,2013-06-30 05:50:00,
2013-06-29 22:55:00,89.8,48.1,29.62,NW,310,7.0,12.0,24,0.00,,,0.00,WUHU216DAVISVP2,2013-06-30 05:55:00,
2013-06-29 23:00:00,90.0,47.2,29.63,NW,309,6.0,13.0,23,0.00,,,0.00,WUHU216DAVISVP2,2013-06-30 06:00:00,
2013-06-29 23:05:00,90.4,47.6,29.62,West,272,3.0,16.0,23,0.00,,,0.00,WUHU216DAVISVP2,2013-06-30 06:05:00,
2013-06-29 23:10:00,90.3,48.6,29.62,WSW,254,9.0,16.0,24,0.00,,,0.00,WUHU216DAVISVP2,2013-06-30 06:10:00,
2013-06-29 23:15:00,90.3,47.5,29.63,SW,233,4.0,16.0,23,0.00,,,0.00,WUHU216DAVISVP2,2013-06-30 06:15:00,
2013-06-29 23:20:00,90.3,47.5,29.63,NW,315,5.0,15.0,23,0.00,,,0.00,WUHU216DAVISVP2,2013-06-30 06:20:00,
2013-06-29 23:25:00,90.1,47.3,29.62,SW,225,2.0,13.0,23,0.00,,,0.00,WUHU216DAVISVP2,2013-06-30 06:25:00,
2013-06-29 23:30:00,89.9,48.2,29.63,SW,223,8.0,16.0,24,0.00,,,0.00,WUHU216DAVISVP2,2013-06-30 06:30:00,
2013-06-29 23:35:00,89.5,47.9,29.62,SW,225,12.0,18.0,24,0.00,,,0.00,WUHU216DAVISVP2,2013-06-30 06:35:00,
2013-06-29 23:40:00,89.5,46.8,29.62,West,265,14.0,18.0,23,0.00,,,0.00,WUHU216DAVISVP2,2013-06-30 06:40:00,
2013-06-29 23:45:00,89.6,46.9,29.62,West,275,4.0,18.0,23,0.00,,,0.00,WUHU216DAVISVP2,2013-06-30 06:45:00,
2013-06-29 23:50:00,90.1,46.1,29.62,WSW,257,2.0,18.0,22,0.00,,,0.00,WUHU216DAVISVP2,2013-06-30 06:50:00,
2013-06-29 23:55:00,90.1,47.3,29.62,SW,231,9.0,18.0,23,0.00,,,0.00,WUHU216DAVISVP2,2013-06-30 06:55:00,